Weather History for KFKL - August, 2014

Change the Weather History Date:

Wednesday, August 13, 2014

  Actual Average Record
Temperature  
Mean Temperature 64 °F -  
Max Temperature 69 °F 79 °F 94 °F (1947)
Min Temperature 57 °F 55 °F 36 °F (1930)
Degree Days  
Heating Degree Days 1    
Growing Degree Days 14 (Base 50)    
Moisture  
Dew Point 55 °F    
Average Humidity 76    
Maximum Humidity 94    
Minimum Humidity 52    
Precipitation  
Precipitation 0.10 in - - ()
Sea Level Pressure  
Sea Level Pressure 29.90 in    
Wind  
Wind Speed 8 mph (West)    
Max Wind Speed 15 mph    
Max Gust Speed 22 mph    
Visibility 9 miles    
Events      
Averages and records for this station are not official NWS values.
T = Trace of Precipitation, MM = Missing Value Source: NWS Daily Summary

Daily Weather History Graph

Daily Weather History Graph

Search for Another Location

Airport or City:

Trip Planner

Search our weather history database for the weather conditions in past years. The results will help you decide how hot, cold, wet, or windy it might be!

Date:

Astronomy

Aug. 13, 2014 Rise Set
Actual Time 6:26 AM EDT 8:21 PM EDT
Civil Twilight 5:56 AM EDT 8:51 PM EDT
Nautical Twilight 5:19 AM EDT 9:27 PM EDT
Astronomical Twilight 4:40 AM EDT 10:06 PM EDT
Moon 10:02 PM EDT (8/13) 9:55 AM EDT (8/13)
Length of Visible Light 14h 54m
Length of Day
13h 54m
Waning Gibbous, 88% of the Moon is Illuminated
Aug 13
Waning Gibbous
Aug 17
Last Quarter
Aug 25
New
Sep 2
First Quarter
Sep 8
Full

Hourly Weather History & Observations

Time (EDT) Temp. Dew Point Humidity Pressure Visibility Wind Dir Wind Speed Gust Speed Precip Events Conditions
12:15 AM 64.4 °F 60.8 °F 88% 29.83 in 3.0 mi WSW 4.6 mph - N/A   Overcast
12:55 AM 62.6 °F 60.8 °F 94% 29.83 in 10.0 mi WSW 5.8 mph - N/A   Mostly Cloudy
1:15 AM 62.6 °F 60.8 °F 94% 29.84 in 8.0 mi WSW 6.9 mph - N/A   Overcast
1:35 AM 62.6 °F 60.8 °F 94% 29.83 in 10.0 mi WSW 9.2 mph - N/A   Overcast
1:55 AM 62.6 °F 59.0 °F 88% 29.83 in 10.0 mi WSW 10.4 mph - N/A   Overcast
2:15 AM 62.6 °F 59.0 °F 88% 29.83 in 10.0 mi WSW 8.1 mph - N/A   Overcast
2:35 AM 62.6 °F 59.0 °F 88% 29.83 in 10.0 mi WSW 9.2 mph - N/A   Overcast
2:55 AM 62.6 °F 59.0 °F 88% 29.83 in 10.0 mi West 9.2 mph - N/A   Overcast
3:15 AM 62.6 °F 59.0 °F 88% 29.83 in 10.0 mi West 9.2 mph - N/A   Overcast
3:35 AM 62.6 °F 59.0 °F 88% 29.83 in 10.0 mi West 8.1 mph - N/A   Overcast
3:55 AM 62.6 °F 59.0 °F 88% 29.83 in 10.0 mi WSW 6.9 mph - N/A   Overcast
4:15 AM 62.6 °F 59.0 °F 88% 29.83 in 9.0 mi WSW 6.9 mph - N/A   Overcast
4:35 AM 62.6 °F 59.0 °F 88% 29.83 in 8.0 mi WSW 6.9 mph - N/A   Overcast
4:55 AM 62.6 °F 59.0 °F 88% 29.83 in 8.0 mi West 5.8 mph - N/A   Overcast
5:15 AM 62.6 °F 59.0 °F 88% 29.84 in 7.0 mi Calm Calm - N/A   Overcast
5:35 AM 62.6 °F 59.0 °F 88% 29.83 in 8.0 mi West 3.5 mph - N/A   Overcast
5:55 AM 62.6 °F 59.0 °F 88% 29.84 in 8.0 mi West 4.6 mph - N/A   Mostly Cloudy
6:15 AM 60.8 °F 57.2 °F 88% 29.85 in 8.0 mi NW 5.8 mph - 0.09 in   Overcast
6:35 AM 60.8 °F 57.2 °F 88% 29.85 in 10.0 mi NW 5.8 mph - 0.10 in   Overcast
6:55 AM 60.8 °F 57.2 °F 88% 29.86 in 5.0 mi WNW 4.6 mph - 0.10 in   Mostly Cloudy
7:15 AM 60.8 °F 57.2 °F 88% 29.87 in 10.0 mi WNW 5.8 mph - N/A   Overcast
7:35 AM 60.8 °F 57.2 °F 88% 29.87 in 10.0 mi WNW 8.1 mph - N/A   Overcast
9:35 AM 60.8 °F 55.4 °F 82% 29.91 in 6.0 mi West 8.1 mph - N/A   Overcast
10:15 AM 60.8 °F 57.2 °F 88% 29.91 in 10.0 mi West 8.1 mph - N/A   Overcast
10:35 AM 62.6 °F 57.2 °F 82% 29.92 in 9.0 mi West 8.1 mph - N/A   Overcast
11:15 AM 60.8 °F 57.2 °F 88% 29.93 in 9.0 mi West 10.4 mph - N/A   Overcast
11:35 AM 62.6 °F 57.2 °F 82% 29.93 in 10.0 mi West 12.7 mph 19.6 mph N/A   Overcast
11:55 AM 62.6 °F 55.4 °F 77% 29.93 in 10.0 mi West 11.5 mph 19.6 mph N/A   Overcast
12:15 PM 60.8 °F 55.4 °F 82% 29.93 in 10.0 mi West 9.2 mph - N/A   Overcast
12:35 PM 62.6 °F 55.4 °F 77% 29.93 in 10.0 mi West 6.9 mph 19.6 mph N/A   Overcast
12:55 PM 62.6 °F 57.2 °F 82% 29.93 in 10.0 mi West 15.0 mph - N/A   Overcast
1:15 PM 62.6 °F 55.4 °F 77% 29.93 in 10.0 mi WNW 9.2 mph - N/A   Overcast
1:35 PM 62.6 °F 55.4 °F 77% 29.94 in 10.0 mi West 10.4 mph 16.1 mph N/A   Overcast
1:55 PM 62.6 °F 55.4 °F 77% 29.93 in 10.0 mi West 13.8 mph - N/A   Overcast
2:15 PM 64.4 °F 55.4 °F 73% 29.93 in 10.0 mi WNW 10.4 mph 19.6 mph N/A   Overcast
2:35 PM 66.2 °F 57.2 °F 73% 29.93 in 10.0 mi West 15.0 mph 20.7 mph N/A   Mostly Cloudy
2:55 PM 66.2 °F 55.4 °F 68% 29.93 in 10.0 mi West 12.7 mph 20.7 mph N/A   Mostly Cloudy
3:15 PM 66.2 °F 53.6 °F 64% 29.93 in 10.0 mi WNW 13.8 mph 19.6 mph N/A   Mostly Cloudy
3:35 PM 66.2 °F 53.6 °F 64% 29.92 in 10.0 mi WNW 9.2 mph 18.4 mph N/A   Mostly Cloudy
3:55 PM 68.0 °F 53.6 °F 60% 29.93 in 10.0 mi West 11.5 mph 20.7 mph N/A   Mostly Cloudy
4:15 PM 66.2 °F 51.8 °F 60% 29.93 in 10.0 mi WNW 12.7 mph 19.6 mph N/A   Mostly Cloudy
4:35 PM 68.0 °F 53.6 °F 60% 29.93 in 10.0 mi NW 10.4 mph 21.9 mph N/A   Mostly Cloudy
4:55 PM 68.0 °F 51.8 °F 56% 29.94 in 10.0 mi NW 8.1 mph 16.1 mph N/A   Mostly Cloudy
5:15 PM 69.8 °F 51.8 °F 53% 29.94 in 10.0 mi West 15.0 mph 20.7 mph N/A   Mostly Cloudy
5:35 PM 66.2 °F 50.0 °F 56% 29.94 in 10.0 mi WNW 9.2 mph 20.7 mph N/A   Mostly Cloudy
5:55 PM 66.2 °F 50.0 °F 56% 29.95 in 10.0 mi NW 10.4 mph 18.4 mph N/A   Mostly Cloudy
6:15 PM 66.2 °F 48.2 °F 52% 29.96 in 10.0 mi NW 10.4 mph 17.3 mph N/A   Partly Cloudy
6:35 PM 66.2 °F 48.2 °F 52% 29.96 in 10.0 mi WNW 8.1 mph 16.1 mph N/A   Partly Cloudy
6:55 PM 66.2 °F 48.2 °F 52% 29.96 in 10.0 mi WNW 9.2 mph - N/A   Mostly Cloudy
7:15 PM 64.4 °F 48.2 °F 56% 29.96 in 10.0 mi WNW 9.2 mph 17.3 mph N/A   Mostly Cloudy
7:35 PM 64.4 °F 48.2 °F 56% 29.97 in 10.0 mi WNW 8.1 mph - N/A   Partly Cloudy
7:55 PM 62.6 °F 48.2 °F 59% 29.97 in 10.0 mi WNW 6.9 mph - N/A   Clear
8:15 PM 60.8 °F 48.2 °F 63% 29.98 in 10.0 mi WNW 6.9 mph - N/A   Clear
8:55 PM 60.8 °F 46.4 °F 59% 29.99 in 10.0 mi WNW 6.9 mph - N/A   Clear
9:35 PM 59.0 °F 46.4 °F 63% 29.99 in 10.0 mi WNW 6.9 mph - N/A   Clear
9:55 PM 57.2 °F 46.4 °F 67% 29.99 in 10.0 mi WNW 5.8 mph - N/A   Clear